LCY weather

London City Airport
London, England, United Kingdom

Public forecast

Using degrees Celsius for public forecast. Weather courtesy of forecast.io.

Current aviation weather report (METAR) for London City Airport

Retrieved 2019/11/14 22:20 UTC (33 minutes ago):

EGLC 142220Z AUTO VRB03KT 9999 NCD 06/05 Q1003

Aviation forecast (TAF) for London City Airport

Forecast is more than 12 hours old.

Retrieved 2018/10/15 21:30 UTC (1 year ago):

TAF EGLC 152119Z 1521/1621 CNL